EW6791 Weather Reports


Display with metric or nautical units.
time (UTC)temp
F
wind
direction
speed
MPH
gust
MPH
rain 1hr
in
rain 24hr
in
rain mn
in
humidity
%
barometer
mb
20220701054557 75 49 0.0 1.0 0.00 0.00 0.00 47 1009.5
20220701053050 75 89 0.0 0.0 0.00 0.00 0.00 48 1009.7
20220701051545 76 77 0.0 0.0 0.00 0.00 0.00 47 1009.9
20220701050045 76 125 0.0 0.0 0.00 0.00 0.00 46 1010.1
20220701044549 76 127 0.0 2.0 0.00 0.00 0.00 46 1010.2
20220701043044 76 180 0.0 0.0 0.00 0.00 0.00 47 1010.4
20220701041540 76 165 0.0 0.0 0.00 0.00 0.00 47 1010.2
20220701040042 76 165 0.0 0.0 0.00 0.00 0.00 47 1010.1
20220701034536 77 215 0.0 0.0 0.00 0.00 0.00 46 1009.8
20220701033036 77 215 0.0 2.0 0.00 0.00 0.00 45 1009.7
20220701031536 77 345 0.0 1.0 0.00 0.00 0.00 45 1009.8
20220701030033 77 12 0.0 2.0 0.00 0.00 0.00 45 1009.7
20220701024534 77 235 0.0 1.0 0.00 0.00 0.00 45 1009.7
20220701023033 77 106 0.0 2.0 0.00 0.00 0.00 46 1009.7
20220701021532 77 176 0.0 3.0 0.00 0.00 0.00 46 1009.9
20220701020031 77 145 0.0 2.0 0.00 0.00 0.00 47 1009.6
20220701014530 78 335 0.0 0.0 0.00 0.00 0.00 46 1009.7
20220701013029 79 271 0.0 2.0 0.00 0.00 0.00 45 1009.9
20220701011527 79 124 0.0 0.0 0.00 0.00 0.00 42 1010.1
20220701010027 80 189 0.0 2.0 0.00 0.00 0.00 41 1010.2
20220701004524 81 171 0.0 2.0 0.00 0.00 0.00 38 1010.5
20220701003023 83 134 0.0 3.0 0.00 0.00 0.00 38 1010.7
20220701001530 84 254 0.0 3.0 0.00 0.00 0.00 37 1010.9
20220701000021 85 197 0.0 4.0 0.00 0.00 0.00 37 1010.9
20220630234521 86 254 1.0 6.0 0.00 0.00 0.00 36 1011.0
20220630233020 88 297 0.0 4.0 0.00 0.00 0.00 33 1011.0
20220630231519 89 212 0.0 6.0 0.00 0.00 0.00 32 1010.8
20220630230019 89 186 1.0 3.0 0.00 0.00 0.00 31 1010.7
20220630224522 89 53 1.0 5.0 0.00 0.00 0.00 32 1010.7
20220630223026 90 150 1.0 6.0 0.00 0.00 0.00 32 1010.7
20220630221530 90 305 0.0 6.0 0.00 0.00 0.00 33 1011.0
20220630220010 90 25 1.0 4.0 0.00 0.00 0.00 34 1011.2
20220630214510 89 230 0.0 4.0 0.00 0.00 0.00 36 1011.5
20220630213012 88 314 1.0 7.0 0.00 0.00 0.00 39 1011.8
20220630211502 87 221 1.0 5.0 0.00 0.00 0.00 41 1012.0
20220630210002 85 316 1.0 4.0 0.00 0.00 0.00 43 1012.1
20220630204602 86 163 2.0 5.0 0.00 0.00 0.00 44 1012.2
20220630203100 85 200 1.0 5.0 0.00 0.00 0.00 43 1012.3
20220630201609 86 273 1.0 6.0 0.00 0.00 0.00 42 1012.3
20220630200057 87 231 1.0 5.0 0.00 0.00 0.00 41 1012.3
20220630194600 87 188 0.0 6.0 0.00 0.00 0.00 42 1012.3
20220630193055 86 285 1.0 6.0 0.00 0.00 0.00 43 1012.4
20220630191603 85 220 1.0 5.0 0.00 0.00 0.00 43 1012.4
20220630190102 86 231 1.0 5.0 0.00 0.00 0.00 42 1012.4
20220630184618 87 297 1.0 5.0 0.00 0.00 0.00 41 1012.5
20220630183051 88 359 3.0 7.0 0.00 0.00 0.00 40 1012.5
20220630181558 88 110 2.0 7.0 0.00 0.00 0.00 40 1012.9
20220630180049 87 243 1.0 4.0 0.00 0.00 0.00 43 1013.1
20220630174542 86 293 1.0 8.0 0.00 0.00 0.00 45 1013.4
20220630173040 86 259 2.0 8.0 0.00 0.00 0.00 45 1013.7
20220630171536 85 195 1.0 5.0 0.00 0.00 0.00 44 1013.9
20220630170039 84 63 1.0 5.0 0.00 0.00 0.00 48 1014.1
20220630164532 84 250 1.0 4.0 0.00 0.00 0.00 50 1014.2
20220630163026 82 53 1.0 4.0 0.00 0.00 0.00 53 1014.5
20220630161525 82 169 1.0 6.0 0.00 0.00 0.00 53 1014.9
20220630160020 81 229 1.0 4.0 0.00 0.00 0.00 55 1015.0
20220630154518 80 116 0.0 4.0 0.00 0.00 0.00 57 1015.3
20220630153012 79 214 0.0 5.0 0.00 0.00 0.00 57 1015.7
20220630151510 78 162 1.0 4.0 0.00 0.00 0.00 57 1015.8
20220630150006 77 133 0.0 3.0 0.00 0.00 0.00 59 1015.7
20220630144508 76 32 0.0 3.0 0.00 0.00 0.00 60 1015.8
20220630143059 74 181 0.0 3.0 0.00 0.00 0.00 61 1015.8
20220630141557 73 264 1.0 3.0 0.00 0.00 0.00 61 1015.8
20220630140054 72 310 0.0 4.0 0.00 0.00 0.00 62 1015.9
20220630134550 72 59 0.0 4.0 0.00 0.00 0.00 63 1016.4
20220630133049 71 109 0.0 3.0 0.00 0.00 0.00 63 1016.1
20220630131545 70 120 0.0 2.0 0.00 0.00 0.00 66 1016.3
20220630130041 68 86 0.0 2.0 0.00 0.00 0.00 65 1016.8
20220630124543 68 241 0.0 2.0 0.00 0.00 0.00 66 1017.4
20220630123035 67 23 0.0 2.0 0.00 0.00 0.00 67 1017.4
20220630121531 67 39 0.0 1.0 0.00 0.00 0.00 66 1017.7
20220630120027 66 88 0.0 0.0 0.00 0.00 0.00 67 1018.2
20220630114530 65 48 0.0 0.0 0.00 0.00 0.00 68 1018.1
20220630113025 65 91 0.0 0.0 0.00 0.00 0.00 67 1018.1
20220630111521 64 65 0.0 0.0 0.00 0.00 0.00 68 1018.4
20220630110019 64 134 0.0 1.0 0.00 0.00 0.00 69 1018.6
20220630104521 63 70 0.0 0.0 0.00 0.00 0.00 69 1018.6
20220630103016 63 29 0.0 0.0 0.00 0.00 0.00 69 1018.8
20220630101520 63 4 0.0 0.0 0.00 0.00 0.00 70 1018.8
20220630100020 62 79 0.0 0.0 0.00 0.00 0.00 70 1018.6
20220630094518 62 79 0.0 0.0 0.00 0.10 0.00 69 1018.5
20220630093020 62 79 0.0 0.0 0.00 0.10 0.00 68 1018.4
20220630091515 62 90 0.0 0.0 0.00 0.10 0.00 68 1018.3
20220630090014 62 94 0.0 0.0 0.00 0.10 0.00 68 1018.4
20220630084507 62 81 0.0 1.0 0.00 0.21 0.00 67 1018.7
20220630083006 62 75 0.0 0.0 0.00 0.21 0.00 67 1018.7
20220630081507 62 335 0.0 0.0 0.00 0.21 0.00 67 1018.8
20220630080007 61 66 0.0 0.0 0.00 0.21 0.00 66 1018.9
20220630074600 61 65 0.0 0.0 0.00 0.35 0.00 66 1018.9
20220630073059 61 124 0.0 0.0 0.00 0.35 0.00 66 1018.9
20220630071556 60 74 0.0 0.0 0.00 0.35 0.00 66 1019.0
20220630070053 59 72 0.0 0.0 0.00 0.35 0.00 66 1019.2
20220630064601 59 82 0.0 0.0 0.00 0.41 0.00 64 1019.3
20220630063051 59 82 0.0 0.0 0.00 0.41 0.00 62 1019.3
20220630061559 59 86 0.0 0.0 0.00 0.41 0.00 60 1019.4
20220630060045 59 86 0.0 0.0 0.00 0.41 0.00 59 1019.7